SDM6028 UUEE-ULLI

Flight info

Callsign SDM6028
Flight time 0h 59m
Altitude 38000
Route TOKNU3F TOKNU L4 NUDKO T561 ODATI T875 GENPA GENPA1B
Aircraft B739/M-SDE2E3FGHIRWXY/LB1

Departure

Time 2026-05-01 14:03
Airport Sheremetyevo International Airport (UUEE)

Arrival

Time 2026-05-01 15:03
Airport Pulkovo Airport (ULLI)
Time Latitude Longitude Altitude Speed Heading
2026-05-01 13:37 55.97885 37.41650 638 ft 0 kts 77°
2026-05-01 13:55 55.97880 37.41610 638 ft 4 kts 75°
2026-05-01 13:55 55.97873 37.41564 643 ft 4 kts 75°
2026-05-01 13:55 55.97867 37.41526 640 ft 4 kts 78°
2026-05-01 13:56 55.97869 37.41493 638 ft 4 kts 147°
2026-05-01 13:56 55.97891 37.41479 642 ft 4 kts 165°
2026-05-01 13:56 55.97914 37.41469 638 ft 1 kts 165°
2026-05-01 13:59 55.97888 37.41481 643 ft 9 kts 165°
2026-05-01 13:59 55.97793 37.41527 642 ft 18 kts 165°
2026-05-01 13:59 55.97680 37.41581 638 ft 11 kts 165°
2026-05-01 14:00 55.97607 37.41577 645 ft 11 kts 222°
2026-05-01 14:00 55.97567 37.41397 640 ft 21 kts 255°
2026-05-01 14:00 55.97523 37.41108 638 ft 22 kts 255°
2026-05-01 14:00 55.97484 37.40844 641 ft 22 kts 255°
2026-05-01 14:01 55.97445 37.40587 644 ft 21 kts 255°
2026-05-01 14:01 55.97403 37.40306 642 ft 25 kts 255°
2026-05-01 14:01 55.97358 37.40005 646 ft 17 kts 255°
2026-05-01 14:01 55.97303 37.39898 645 ft 0 kts 167°
2026-05-01 14:02 55.97294 37.39902 639 ft 6 kts 167°
2026-05-01 14:02 55.97212 37.39939 641 ft 16 kts 158°
2026-05-01 14:02 55.97191 37.40067 642 ft 0 kts 75°
2026-05-01 14:03 55.97206 37.40169 644 ft 37 kts 75°
2026-05-01 14:03 55.97345 37.41098 642 ft 115 kts 75°
2026-05-01 14:03 55.97616 37.42872 652 ft 176 kts 75°
2026-05-01 14:03 55.97958 37.45057 1329 ft 182 kts 72°
2026-05-01 14:04 55.98295 37.47182 2440 ft 174 kts 73°
2026-05-01 14:04 55.98591 37.49287 3191 ft 180 kts 75°
2026-05-01 14:04 55.98898 37.51623 3509 ft 202 kts 75°
2026-05-01 14:04 55.99114 37.53274 3711 ft 214 kts 75°
2026-05-01 14:05 55.99604 37.56912 4020 ft 238 kts 75°
2026-05-01 14:05 56.00000 37.59824 4503 ft 244 kts 75°
2026-05-01 14:05 56.00422 37.62773 5060 ft 246 kts 69°
2026-05-01 14:05 56.01367 37.65255 5621 ft 243 kts 37°
2026-05-01 14:06 56.02872 37.66471 6181 ft 239 kts
2026-05-01 14:06 56.04521 37.66299 6717 ft 239 kts 346°
2026-05-01 14:06 56.06133 37.65504 7198 ft 244 kts 342°
2026-05-01 14:06 56.07818 37.64583 7422 ft 260 kts 342°
2026-05-01 14:07 56.09539 37.63460 8008 ft 266 kts 329°
2026-05-01 14:07 56.10876 37.61205 8791 ft 267 kts 304°
2026-05-01 14:07 56.11453 37.59249 9275 ft 270 kts 295°
2026-05-01 14:08 56.12831 37.52810 10391 ft 290 kts 292°
2026-05-01 14:08 56.13551 37.49286 10555 ft 311 kts 292°
2026-05-01 14:08 56.14323 37.45522 10718 ft 332 kts 292°
2026-05-01 14:08 56.15419 37.40195 11004 ft 354 kts 293°
2026-05-01 14:09 56.16284 37.36006 11479 ft 361 kts 293°
2026-05-01 14:09 56.16876 37.33143 11870 ft 364 kts 293°
2026-05-01 14:09 56.17764 37.28852 12488 ft 368 kts 294°
2026-05-01 14:09 56.18659 37.24527 13089 ft 372 kts 294°
2026-05-01 14:10 56.19566 37.20145 13653 ft 377 kts 294°
2026-05-01 14:10 56.20484 37.15709 14205 ft 381 kts 295°
2026-05-01 14:10 56.21409 37.11228 14746 ft 383 kts 295°
2026-05-01 14:10 56.22326 37.06771 15312 ft 386 kts 295°
2026-05-01 14:11 56.23261 37.02224 15845 ft 389 kts 295°
2026-05-01 14:11 56.25145 36.93029 16877 ft 395 kts 295°
2026-05-01 14:11 56.26099 36.88356 17389 ft 399 kts 295°
2026-05-01 14:12 56.27055 36.83660 17905 ft 402 kts 295°
2026-05-01 14:12 56.28017 36.78922 18400 ft 405 kts 295°
2026-05-01 14:12 56.28986 36.74141 18848 ft 408 kts 295°
2026-05-01 14:12 56.29960 36.69326 19310 ft 410 kts 295°
2026-05-01 14:13 56.30937 36.64478 19753 ft 413 kts 295°
2026-05-01 14:13 56.31922 36.59585 20181 ft 416 kts 295°
2026-05-01 14:13 56.32908 36.54668 20616 ft 419 kts 296°
2026-05-01 14:13 56.33903 36.49701 21049 ft 422 kts 296°
2026-05-01 14:14 56.34891 36.44758 21466 ft 425 kts 296°
2026-05-01 14:14 56.35896 36.39718 21877 ft 428 kts 296°
2026-05-01 14:14 56.36921 36.34664 22279 ft 430 kts 297°
2026-05-01 14:14 56.37993 36.29609 22674 ft 433 kts 298°
2026-05-01 14:15 56.39086 36.24529 23060 ft 436 kts 299°
2026-05-01 14:15 56.40183 36.19414 23452 ft 439 kts 299°
2026-05-01 14:15 56.41283 36.14244 23825 ft 442 kts 299°
2026-05-01 14:15 56.42380 36.09053 24141 ft 444 kts 299°
2026-05-01 14:16 56.43479 36.03821 24478 ft 446 kts 299°
2026-05-01 14:16 56.44631 35.98617 24799 ft 443 kts 304°
2026-05-01 14:16 56.46121 35.93812 25123 ft 434 kts 313°
2026-05-01 14:16 56.47973 35.89570 25457 ft 428 kts 319°
2026-05-01 14:17 56.49908 35.85479 25788 ft 429 kts 320°
2026-05-01 14:17 56.51854 35.81362 26100 ft 431 kts 319°
2026-05-01 14:17 56.53799 35.77200 26415 ft 433 kts 319°
2026-05-01 14:17 56.55736 35.73006 26747 ft 435 kts 319°
2026-05-01 14:18 56.57673 35.68778 27034 ft 437 kts 319°
2026-05-01 14:18 56.59587 35.64587 27331 ft 438 kts 319°
2026-05-01 14:18 56.61559 35.60262 27620 ft 440 kts 319°
2026-05-01 14:18 56.62852 35.57422 27827 ft 441 kts 319°
2026-05-01 14:19 56.65446 35.51721 28197 ft 443 kts 319°
2026-05-01 14:19 56.67438 35.47339 28469 ft 445 kts 319°
2026-05-01 14:19 56.69406 35.42998 28809 ft 445 kts 319°
2026-05-01 14:19 56.71340 35.38721 29284 ft 442 kts 319°
2026-05-01 14:20 56.73283 35.34411 29770 ft 439 kts 319°
2026-05-01 14:20 56.77149 35.25828 30481 ft 437 kts 319°
2026-05-01 14:20 56.79075 35.21546 30759 ft 437 kts 319°
2026-05-01 14:21 56.81003 35.17249 31048 ft 436 kts 319°
2026-05-01 14:21 56.83061 35.13258 31326 ft 426 kts 327°
2026-05-01 14:21 56.85384 35.10034 31599 ft 417 kts 334°
2026-05-01 14:22 56.90171 35.04070 32113 ft 416 kts 333°
2026-05-01 14:22 56.92565 35.01074 32369 ft 416 kts 333°
2026-05-01 14:22 56.94949 34.98069 32639 ft 416 kts 333°
2026-05-01 14:22 56.97329 34.95048 32883 ft 416 kts 333°
2026-05-01 14:23 56.99704 34.92019 33116 ft 416 kts 333°
2026-05-01 14:23 57.02049 34.89017 33358 ft 416 kts 332°
2026-05-01 14:23 57.04419 34.85975 33592 ft 416 kts 332°
2026-05-01 14:23 57.06791 34.82925 33805 ft 416 kts 332°
2026-05-01 14:24 57.09160 34.79873 34026 ft 416 kts 332°
2026-05-01 14:24 57.11525 34.76821 34236 ft 415 kts 332°
2026-05-01 14:24 57.13894 34.73759 34392 ft 416 kts 332°
2026-05-01 14:24 57.16264 34.70692 34519 ft 417 kts 332°
2026-05-01 14:25 57.18641 34.67612 34666 ft 418 kts 331°
2026-05-01 14:25 57.21016 34.64529 34822 ft 418 kts 331°
2026-05-01 14:25 57.23395 34.61435 34945 ft 419 kts 331°
2026-05-01 14:25 57.25779 34.58330 35096 ft 419 kts 331°
2026-05-01 14:26 57.28163 34.55220 35242 ft 420 kts 331°
2026-05-01 14:26 57.32933 34.48982 35504 ft 421 kts 330°
2026-05-01 14:26 57.35330 34.45839 35646 ft 421 kts 330°
2026-05-01 14:27 57.37721 34.42699 35785 ft 421 kts 330°
2026-05-01 14:27 57.40110 34.39556 35926 ft 422 kts 330°
2026-05-01 14:27 57.42506 34.36400 36049 ft 422 kts 330°
2026-05-01 14:28 57.47289 34.30082 36315 ft 422 kts 330°
2026-05-01 14:28 57.49689 34.26905 36440 ft 423 kts 330°
2026-05-01 14:28 57.52078 34.23737 36558 ft 423 kts 330°
2026-05-01 14:28 57.54446 34.20592 36669 ft 423 kts 330°
2026-05-01 14:29 57.56843 34.17402 36789 ft 423 kts 330°
2026-05-01 14:29 57.59237 34.14212 36900 ft 423 kts 330°
2026-05-01 14:30 57.66425 34.04601 37238 ft 424 kts 329°
2026-05-01 14:30 57.68820 34.01387 37334 ft 424 kts 329°
2026-05-01 14:31 57.76009 33.91710 37625 ft 424 kts 329°
2026-05-01 14:31 57.80798 33.85236 37804 ft 425 kts 329°
2026-05-01 14:32 57.85591 33.78738 37983 ft 425 kts 329°
2026-05-01 14:32 57.87980 33.75470 38093 ft 425 kts 328°
2026-05-01 14:32 57.90314 33.72049 38163 ft 426 kts 326°
2026-05-01 14:33 57.94894 33.64994 38176 ft 427 kts 326°
2026-05-01 14:33 57.99496 33.57890 38181 ft 428 kts 326°
2026-05-01 14:34 58.04116 33.50808 38172 ft 428 kts 326°
2026-05-01 14:34 58.08746 33.43712 38170 ft 428 kts 326°
2026-05-01 14:35 58.13368 33.36604 38172 ft 428 kts 326°
2026-05-01 14:35 58.17982 33.29483 38173 ft 427 kts 325°
2026-05-01 14:36 58.22576 33.22371 38172 ft 426 kts 325°
2026-05-01 14:36 58.27154 33.15263 38173 ft 425 kts 325°
2026-05-01 14:37 58.31721 33.08147 38170 ft 423 kts 325°
2026-05-01 14:37 58.36265 33.01042 38171 ft 422 kts 325°
2026-05-01 14:37 58.38542 32.97474 37819 ft 428 kts 325°
2026-05-01 14:38 58.40857 32.93844 37263 ft 428 kts 325°
2026-05-01 14:38 58.43120 32.90280 36543 ft 427 kts 325°
2026-05-01 14:38 58.45407 32.86675 35885 ft 424 kts 326°
2026-05-01 14:38 58.47668 32.83102 35169 ft 422 kts 326°
2026-05-01 14:39 58.49928 32.79528 34549 ft 419 kts 326°
2026-05-01 14:39 58.52170 32.75977 33534 ft 422 kts 326°
2026-05-01 14:39 58.54429 32.72398 32696 ft 421 kts 326°
2026-05-01 14:39 58.56681 32.68821 31599 ft 425 kts 326°
2026-05-01 14:40 58.58962 32.65194 30667 ft 426 kts 326°
2026-05-01 14:40 58.61234 32.61570 29836 ft 424 kts 325°
2026-05-01 14:40 58.63485 32.57967 29137 ft 419 kts 325°
2026-05-01 14:40 58.65708 32.54405 28464 ft 413 kts 325°
2026-05-01 14:41 58.67902 32.50884 27797 ft 409 kts 325°
2026-05-01 14:41 58.70073 32.47398 27144 ft 405 kts 325°
2026-05-01 14:41 58.72223 32.43943 26494 ft 401 kts 325°
2026-05-01 14:41 58.74354 32.40511 25834 ft 398 kts 325°
2026-05-01 14:42 58.76469 32.37100 25211 ft 394 kts 325°
2026-05-01 14:42 58.78549 32.33733 24707 ft 388 kts 325°
2026-05-01 14:42 58.80613 32.30389 24093 ft 386 kts 325°
2026-05-01 14:42 58.82663 32.27064 23423 ft 384 kts 325°
2026-05-01 14:43 58.84679 32.23790 22746 ft 381 kts 325°
2026-05-01 14:43 58.86700 32.20500 22126 ft 377 kts 325°
2026-05-01 14:43 58.88699 32.17242 21509 ft 374 kts 324°
2026-05-01 14:43 58.90680 32.14009 20898 ft 371 kts 324°
2026-05-01 14:44 58.92653 32.10784 20274 ft 369 kts 324°
2026-05-01 14:44 58.96560 32.04384 19074 ft 366 kts 324°
2026-05-01 14:44 58.98498 32.01203 18483 ft 364 kts 324°
2026-05-01 14:45 59.00428 31.98028 17818 ft 362 kts 324°
2026-05-01 14:45 59.04218 31.91777 16612 ft 357 kts 323°
2026-05-01 14:45 59.06107 31.88659 16020 ft 355 kts 323°
2026-05-01 14:46 59.07987 31.85550 15437 ft 353 kts 323°
2026-05-01 14:46 59.11686 31.79297 14162 ft 354 kts 320°
2026-05-01 14:46 59.13470 31.75957 13469 ft 356 kts 319°
2026-05-01 14:47 59.15227 31.72582 12824 ft 354 kts 318°
2026-05-01 14:47 59.16970 31.69225 12252 ft 351 kts 318°
2026-05-01 14:47 59.18706 31.65894 11660 ft 349 kts 318°
2026-05-01 14:48 59.22143 31.59333 10782 ft 337 kts 318°
2026-05-01 14:48 59.23789 31.56192 10626 ft 324 kts 318°
2026-05-01 14:48 59.26883 31.50278 10359 ft 300 kts 318°
2026-05-01 14:49 59.29769 31.44741 10127 ft 278 kts 318°
2026-05-01 14:49 59.32424 31.39639 9476 ft 272 kts 318°
2026-05-01 14:50 59.34231 31.36164 8933 ft 272 kts 317°
2026-05-01 14:50 59.37800 31.29279 8015 ft 268 kts 317°
2026-05-01 14:51 59.39121 31.26725 7688 ft 266 kts 316°
2026-05-01 14:51 59.41743 31.21644 7046 ft 263 kts 316°
2026-05-01 14:52 59.44334 31.16612 6375 ft 261 kts 315°
2026-05-01 14:52 59.45620 31.14109 6039 ft 260 kts 315°
2026-05-01 14:52 59.48164 31.09154 5422 ft 255 kts 314°
2026-05-01 14:53 59.49398 31.06745 5319 ft 245 kts 314°
2026-05-01 14:53 59.50591 31.04414 5191 ft 237 kts 314°
2026-05-01 14:53 59.51739 31.02160 5081 ft 229 kts 312°
2026-05-01 14:53 59.52783 30.99872 4958 ft 221 kts 310°
2026-05-01 14:54 59.53777 30.97590 4846 ft 216 kts 309°
2026-05-01 14:54 59.54725 30.95401 4748 ft 203 kts 309°
2026-05-01 14:54 59.55327 30.94011 4628 ft 201 kts 309°
2026-05-01 14:54 59.56246 30.91890 4604 ft 210 kts 309°
2026-05-01 14:55 59.57230 30.89619 4476 ft 223 kts 309°
2026-05-01 14:55 59.58255 30.87259 4368 ft 228 kts 309°
2026-05-01 14:55 59.59289 30.84880 4230 ft 228 kts 309°
2026-05-01 14:55 59.60328 30.82488 4021 ft 230 kts 309°
2026-05-01 14:56 59.61360 30.80113 3875 ft 226 kts 310°
2026-05-01 14:56 59.62376 30.77781 3743 ft 222 kts 309°
2026-05-01 14:56 59.63378 30.75470 3627 ft 220 kts 309°
2026-05-01 14:56 59.64373 30.73172 3513 ft 220 kts 309°
2026-05-01 14:57 59.65366 30.70878 3397 ft 219 kts 309°
2026-05-01 14:57 59.67343 30.66793 3167 ft 194 kts 322°
2026-05-01 14:57 59.68419 30.65333 3064 ft 181 kts 323°
2026-05-01 14:58 59.69428 30.63973 2967 ft 172 kts 323°
2026-05-01 14:58 59.70411 30.62627 2858 ft 179 kts 323°
2026-05-01 14:58 59.71536 30.61074 2848 ft 212 kts 323°
2026-05-01 14:58 59.72710 30.59452 2918 ft 198 kts 323°
2026-05-01 14:59 59.73803 30.57940 2787 ft 184 kts 322°
2026-05-01 14:59 59.74727 30.56383 2572 ft 166 kts 298°
2026-05-01 14:59 59.75061 30.54221 2557 ft 171 kts 285°
2026-05-01 14:59 59.75508 30.52053 2511 ft 166 kts 292°
2026-05-01 15:00 59.76190 30.47802 2192 ft 159 kts 285°
2026-05-01 15:00 59.76493 30.45689 1964 ft 159 kts 286°
2026-05-01 15:00 59.76797 30.43619 1736 ft 153 kts 285°
2026-05-01 15:01 59.77089 30.41594 1553 ft 155 kts 286°
2026-05-01 15:01 59.77393 30.39518 1317 ft 157 kts 285°
2026-05-01 15:01 59.77691 30.37479 1121 ft 150 kts 286°
2026-05-01 15:01 59.77964 30.35583 899 ft 134 kts 285°
2026-05-01 15:02 59.78222 30.33852 738 ft 130 kts 286°
2026-05-01 15:02 59.78394 30.32684 658 ft 140 kts 287°
2026-05-01 15:02 59.78772 30.30041 328 ft 148 kts 287°
2026-05-01 15:02 59.79051 30.28127 103 ft 139 kts 287°
2026-05-01 15:03 59.79288 30.26555 81 ft 92 kts 287°
2026-05-01 15:03 59.79415 30.25713 82 ft 37 kts 287°
2026-05-01 15:03 59.79471 30.25518 82 ft 7 kts
2026-05-01 15:03 59.79495 30.25591 81 ft 7 kts 68°
2026-05-01 15:04 59.79512 30.25713 84 ft 12 kts 76°
2026-05-01 15:04 59.79528 30.25844 84 ft 0 kts 76°
2026-05-01 15:04 59.79530 30.25857 83 ft 4 kts 76°
2026-05-01 15:05 59.79544 30.25974 85 ft 13 kts 81°
2026-05-01 15:05 59.79520 30.26187 83 ft 20 kts 104°
2026-05-01 15:05 59.79530 30.26366 82 ft 14 kts 32°
2026-05-01 15:05 59.79635 30.26429 79 ft 18 kts 16°
2026-05-01 15:06 59.79755 30.26501 80 ft 17 kts 17°
2026-05-01 15:06 59.79860 30.26563 83 ft 14 kts 17°
2026-05-01 15:06 59.79905 30.26627 80 ft 4 kts 85°
2026-05-01 15:06 59.79895 30.26685 81 ft 3 kts 111°
2026-05-01 15:07 59.79892 30.26697 80 ft 0 kts 111°